Check out our new BloomSky Weather System.

Active alerts

Houston, TX
  Details for Houston, TX River Flood Warning  +1 additional alert
Fort Bend, TX
  Details for Fort Bend, TX River Flood Warning  +1 additional alert


Thunder radar  blitzortung!


Rain radar more information rain snow radar


Visit our other weather sites:

Template documentation
and downloads

And another site



Weather Underground History page Text

Daily Summary for January 3, 2018 Units:  Metric    English   Both
« Previous Day
Next Day »
Daily Weekly Monthly Yearly Custom
  High: Low: Average:
Temperature: -17.8 °C -4.6 °C 0.5 °C
Dew Point: -17.8 °C -10.2 °C -7.5 °C
Humidity: Humidity % 32 % 57 %
Wind Speed: 0 km/h 0 km/h 2.9 km/h
Wind Gust: 0 km/h - -
Wind:- - WNW
Pressure: 0 hPa 1026.6 hPa -
Precipitation: 0 mm    
Historical Graphs
 
 
Tabular Data for January 3, 2018
Time Temperature Dew Point Pressure Wind Wind Speed Wind Gust Humidity Rainfall Rate (Hourly)
-17.8 °C -17.8 °C 0 hPa Calm     Humidity % 0 mm
00:02 -1.7 °C -6.8 °C 1032.7 hPa NW 4.8 km/h 14.5 km/h 68 % 0 mm
00:05 -1.7 °C -7 °C 1032.4 hPa NW 8 km/h 14.5 km/h 67 % 0 mm
00:08 -1.7 °C -7 °C 1032.7 hPa NNW 9.7 km/h 14.5 km/h 67 % 0 mm
00:10 -1.7 °C -7 °C 1032.4 hPa NNW 4.8 km/h 12.9 km/h 67 % 0 mm
00:15 -1.7 °C -7.2 °C 1032.4 hPa NW 6.4 km/h 14.5 km/h 66 % 0 mm
00:22 -1.7 °C -7.2 °C 1032.4 hPa NW 4.8 km/h 14.5 km/h 66 % 0 mm
00:23 -1.8 °C -7.3 °C 1032.4 hPa NW 8 km/h 14.5 km/h 66 % 0 mm
00:29 -1.8 °C -7.3 °C 1032.1 hPa NW 6.4 km/h 14.5 km/h 66 % 0 mm
00:32 -1.8 °C -7.3 °C 1032.1 hPa NW 4.8 km/h 14.5 km/h 66 % 0 mm
00:35 -1.8 °C -7.3 °C 1032.4 hPa NNE 4.8 km/h 12.9 km/h 66 % 0 mm
00:45 -1.7 °C -7.8 °C 1032.1 hPa NW 3.2 km/h 14.5 km/h 63 % 0 mm
00:50 -1.7 °C -8 °C 1032.1 hPa NW 3.2 km/h 14.5 km/h 62 % 0 mm
00:53 -1.7 °C -8 °C 1032.1 hPa North 8 km/h 14.5 km/h 62 % 0 mm
00:58 -1.7 °C -8 °C 1032.1 hPa NNW 1.6 km/h 14.5 km/h 62 % 0 mm
01:03 -1.7 °C -8 °C 1032.1 hPa WNW 1.6 km/h 14.5 km/h 62 % 0 mm
01:04 -1.7 °C -8 °C 1032.1 hPa NW 4.8 km/h 14.5 km/h 62 % 0 mm
01:08 -1.7 °C -8.2 °C 1032.1 hPa WNW 1.6 km/h 14.5 km/h 61 % 0 mm
01:10 -1.7 °C -8 °C 1032.1 hPa NW 4.8 km/h 14.5 km/h 62 % 0 mm
01:15 -1.8 °C -8.3 °C 1032.1 hPa NNW 4.8 km/h 14.5 km/h 61 % 0 mm
01:19 -1.8 °C -8.5 °C 1032.1 hPa NNW 4.8 km/h 14.5 km/h 60 % 0 mm
01:22 -1.8 °C -8.8 °C 1031.7 hPa NW 6.4 km/h 11.3 km/h 59 % 0 mm
01:27 -1.8 °C -8.5 °C 1031.7 hPa North 3.2 km/h 11.3 km/h 60 % 0 mm
01:28 -1.8 °C -8.5 °C 1031.7 hPa NW 3.2 km/h 11.3 km/h 60 % 0 mm
01:33 -1.9 °C -8.6 °C 1031.7 hPa NW 1.6 km/h 9.7 km/h 60 % 0 mm
01:35 -1.9 °C -8.6 °C 1031.7 hPa NNW 6.4 km/h 9.7 km/h 60 % 0 mm
01:40 -2 °C -8.7 °C 1032.1 hPa NW 3.2 km/h 8 km/h 60 % 0 mm
01:41 -2 °C -8.7 °C 1031.7 hPa Calm   8 km/h 60 % 0 mm
01:42 -2.1 °C -8.8 °C 1031.7 hPa NNW 1.6 km/h 8 km/h 60 % 0 mm
01:47 -2.1 °C -9 °C 1032.1 hPa NNW 3.2 km/h 17.7 km/h 59 % 0 mm
01:53 -2.2 °C -9.1 °C 1032.1 hPa North 3.2 km/h 17.7 km/h 59 % 0 mm
01:57 -2.2 °C -9.1 °C 1032.1 hPa WNW 1.6 km/h 17.7 km/h 59 % 0 mm
02:00 -2.3 °C -9.2 °C 1031.7 hPa NNW 4.8 km/h 9.7 km/h 59 % 0 mm
02:06 -2.3 °C -9.2 °C 1032.1 hPa Calm   8 km/h 59 % 0 mm
02:08 -2.4 °C -9.3 °C 1031.7 hPa NW 4.8 km/h 8 km/h 59 % 0 mm
02:13 -2.4 °C -9.3 °C 1031.7 hPa Calm   8 km/h 59 % 0 mm
02:14 -2.4 °C -9.3 °C 1031.7 hPa North 3.2 km/h 8 km/h 59 % 0 mm
02:19 -2.5 °C -9.6 °C 1031.7 hPa SW 4.8 km/h 8 km/h 58 % 0 mm
02:20 -2.5 °C -9.6 °C 1031.7 hPa NNW 3.2 km/h 12.9 km/h 58 % 0 mm
02:27 -2.6 °C -9.5 °C 1031.7 hPa NW 1.6 km/h 12.9 km/h 59 % 0 mm
02:32 -2.6 °C -9.5 °C 1031.7 hPa NW 9.7 km/h 12.9 km/h 59 % 0 mm
02:33 -2.6 °C -9.5 °C 1031.7 hPa NNW 1.6 km/h 12.9 km/h 59 % 0 mm
02:38 -2.6 °C -9.5 °C 1031.7 hPa NNW 4.8 km/h 14.5 km/h 59 % 0 mm
02:40 -2.7 °C -9.6 °C 1031.4 hPa North 4.8 km/h 14.5 km/h 59 % 0 mm
02:44 -2.7 °C -9.6 °C 1031.4 hPa NNW 4.8 km/h 14.5 km/h 59 % 0 mm
02:45 -2.7 °C -9.6 °C 1031.4 hPa NW 3.2 km/h 14.5 km/h 59 % 0 mm
02:50 -2.8 °C -9.5 °C 1031.4 hPa NW 1.6 km/h 14.5 km/h 60 % 0 mm
02:54 -2.8 °C -9.5 °C 1031.4 hPa NW 3.2 km/h 14.5 km/h 60 % 0 mm
02:56 -2.9 °C -9.6 °C 1031.4 hPa NNW 3.2 km/h 9.7 km/h 60 % 0 mm
02:59 -2.9 °C -9.6 °C 1031.4 hPa NW 8 km/h 9.7 km/h 60 % 0 mm
03:04 -2.9 °C -9.6 °C 1031.4 hPa NNW 1.6 km/h 11.3 km/h 60 % 0 mm
03:07 -2.9 °C -9.4 °C 1031.4 hPa NNW 1.6 km/h 11.3 km/h 61 % 0 mm
03:12 -3 °C -9.5 °C 1031.4 hPa North 3.2 km/h 11.3 km/h 61 % 0 mm
03:14 -3.1 °C -9.6 °C 1031.4 hPa Calm   11.3 km/h 61 % 0 mm
03:16 -3.1 °C -9.6 °C 1031.4 hPa NNW 1.6 km/h 8 km/h 61 % 0 mm
03:21 -3.1 °C -9.6 °C 1031 hPa North 6.4 km/h 6.4 km/h 61 % 0 mm
03:28 -3.2 °C -9.4 °C 1031.4 hPa Calm   12.9 km/h 62 % 0 mm
03:31 -3.2 °C -9.4 °C 1031 hPa NNW 4.8 km/h 12.9 km/h 62 % 0 mm
03:36 -3.3 °C -9.5 °C 1031 hPa NW 1.6 km/h 12.9 km/h 62 % 0 mm
03:37 -3.3 °C -9.5 °C 1031 hPa Calm   12.9 km/h 62 % 0 mm
03:40 -3.3 °C -9.5 °C 1031 hPa Calm   8 km/h 62 % 0 mm
03:45 -3.4 °C -9.4 °C 1031 hPa NW 1.6 km/h 6.4 km/h 63 % 0 mm
03:46 -3.4 °C -9.4 °C 1031.4 hPa Calm   6.4 km/h 63 % 0 mm
03:51 -3.4 °C -9.4 °C 1031 hPa Calm   4.8 km/h 63 % 0 mm
03:54 -3.5 °C -9.5 °C 1031 hPa NNW 1.6 km/h 4.8 km/h 63 % 0 mm
03:59 -3.5 °C -9.5 °C 1031 hPa NNW 1.6 km/h 6.4 km/h 63 % 0 mm
04:04 -3.5 °C -9.5 °C 1031.4 hPa NW 3.2 km/h 6.4 km/h 63 % 0 mm
04:06 -3.6 °C -9.6 °C 1031.4 hPa NNW 8 km/h 8 km/h 63 % 0 mm
04:11 -3.6 °C -9.6 °C 1031.4 hPa NNW 6.4 km/h 8 km/h 63 % 0 mm
04:12 -3.6 °C -9.6 °C 1031.4 hPa WNW 4.8 km/h 8 km/h 63 % 0 mm
04:13 -3.5 °C -9.5 °C 1031.4 hPa NNW 1.6 km/h 8 km/h 63 % 0 mm
04:18 -3.5 °C -9.7 °C 1031.4 hPa NNW 1.6 km/h 16.1 km/h 62 % 0 mm
04:19 -3.5 °C -9.7 °C 1031.4 hPa NNW 3.2 km/h 16.1 km/h 62 % 0 mm
04:23 -3.5 °C -9.5 °C 1031.4 hPa NW 9.7 km/h 16.1 km/h 63 % 0 mm
04:26 -3.5 °C -9.5 °C 1031.4 hPa NW 1.6 km/h 16.1 km/h 63 % 0 mm
04:31 -3.6 °C -9.6 °C 1031.4 hPa NW 1.6 km/h 9.7 km/h 63 % 0 mm
04:32 -3.6 °C -9.6 °C 1031.4 hPa NW 1.6 km/h 9.7 km/h 63 % 0 mm
04:37 -3.7 °C -9.5 °C 1031.4 hPa West 1.6 km/h 9.7 km/h 64 % 0 mm
04:42 -3.8 °C -9.4 °C 1031.4 hPa Calm   6.4 km/h 65 % 0 mm
04:44 -3.8 °C -9.4 °C 1031.4 hPa West 1.6 km/h 6.4 km/h 65 % 0 mm
04:49 -3.9 °C -9.3 °C 1031.4 hPa NW 1.6 km/h 6.4 km/h 66 % 0 mm
04:50 -3.9 °C -9.3 °C 1031.4 hPa NNW 6.4 km/h 6.4 km/h 66 % 0 mm
04:55 -3.9 °C -9.3 °C 1031.4 hPa NW 1.6 km/h 6.4 km/h 66 % 0 mm
04:56 -3.9 °C -9.3 °C 1031.4 hPa NNW 4.8 km/h 6.4 km/h 66 % 0 mm
05:01 -4 °C -9.4 °C 1031.4 hPa NNW 1.6 km/h 6.4 km/h 66 % 0 mm
05:06 -3.9 °C -9.3 °C 1031.4 hPa NW 8 km/h 8 km/h 66 % 0 mm
05:07 -4 °C -9.4 °C 1031.4 hPa NNW 3.2 km/h 6.4 km/h 66 % 0 mm
05:12 -3.9 °C -9.5 °C 1031.4 hPa Calm   11.3 km/h 65 % 0 mm
05:13 -3.9 °C -9.5 °C 1031.4 hPa NNW 1.6 km/h 11.3 km/h 65 % 0 mm
05:18 -4 °C -9.6 °C 1031.4 hPa NW 4.8 km/h 11.3 km/h 65 % 0 mm
05:19 -4 °C -9.6 °C 1031.7 hPa NNW 1.6 km/h 11.3 km/h 65 % 0 mm
05:24 -3.9 °C -9.5 °C 1031.7 hPa NNW 3.2 km/h 11.3 km/h 65 % 0 mm
05:25 -3.9 °C -9.5 °C 1031.7 hPa NW 4.8 km/h 9.7 km/h 65 % 0 mm
05:31 -3.9 °C -9.5 °C 1031.7 hPa NW 1.6 km/h 9.7 km/h 65 % 0 mm
05:36 -4 °C -9.6 °C 1031.7 hPa NNW 4.8 km/h 9.7 km/h 65 % 0 mm
05:41 -4.1 °C -9.7 °C 1031.7 hPa NW 1.6 km/h 11.3 km/h 65 % 0 mm
05:43 -4.1 °C -9.7 °C 1031.7 hPa NW 6.4 km/h 11.3 km/h 65 % 0 mm
05:48 -4.1 °C -9.7 °C 1032.1 hPa NNW 3.2 km/h 11.3 km/h 65 % 0 mm
05:51 -4.1 °C -9.7 °C 1032.1 hPa Calm   11.3 km/h 65 % 0 mm
05:55 -4.2 °C -9.8 °C 1032.1 hPa Calm   9.7 km/h 65 % 0 mm
06:00 -4.2 °C -9.8 °C 1032.1 hPa Calm   9.7 km/h 65 % 0 mm
06:03 -4.2 °C -9.8 °C 1032.1 hPa Calm   9.7 km/h 65 % 0 mm
06:08 -4.2 °C -9.8 °C 1032.1 hPa NW 8 km/h 9.7 km/h 65 % 0 mm
06:12 -4.2 °C -9.8 °C 1032.1 hPa NW 3.2 km/h 9.7 km/h 65 % 0 mm
06:17 -4.2 °C -9.6 °C 1032.1 hPa NNE 1.6 km/h 9.7 km/h 66 % 0 mm
06:18 -4.3 °C -9.7 °C 1032.1 hPa NW 3.2 km/h 9.7 km/h 66 % 0 mm
06:23 -4.3 °C -9.7 °C 1032.1 hPa NNW 4.8 km/h 9.7 km/h 66 % 0 mm
06:25 -4.3 °C -9.7 °C 1032.1 hPa Calm   11.3 km/h 66 % 0 mm
06:26 -4.3 °C -9.7 °C 1032.1 hPa NNW 1.6 km/h 11.3 km/h 66 % 0 mm
06:30 -4.3 °C -9.7 °C 1032.1 hPa NW 6.4 km/h 11.3 km/h 66 % 0 mm
06:34 -4.3 °C -9.9 °C 1032.1 hPa NNW 1.6 km/h 11.3 km/h 65 % 0 mm
06:39 -4.4 °C -9.8 °C 1032.1 hPa NW 6.4 km/h 11.3 km/h 66 % 0 mm
06:44 -4.4 °C -9.8 °C 1032.1 hPa NNW 3.2 km/h 9.7 km/h 66 % 0 mm
06:45 -4.4 °C -9.8 °C 1032.1 hPa NNW 3.2 km/h 9.7 km/h 66 % 0 mm
06:50 -4.4 °C -9.8 °C 1032.1 hPa NW 8 km/h 11.3 km/h 66 % 0 mm
06:52 -4.4 °C -10 °C 1032.1 hPa North 4.8 km/h 11.3 km/h 65 % 0 mm
06:53 -4.4 °C -10 °C 1032.1 hPa NW 1.6 km/h 11.3 km/h 65 % 0 mm
06:58 -4.4 °C -10 °C 1032.1 hPa NNW 3.2 km/h 11.3 km/h 65 % 0 mm
06:59 -4.4 °C -10 °C 1032.1 hPa NW 6.4 km/h 11.3 km/h 65 % 0 mm
07:04 -4.5 °C -10.1 °C 1032.1 hPa NNW 3.2 km/h 11.3 km/h 65 % 0 mm
07:09 -4.5 °C -10.1 °C 1032.1 hPa NW 1.6 km/h 9.7 km/h 65 % 0 mm
07:11 -4.6 °C -10.2 °C 1032.1 hPa WNW 4.8 km/h 8 km/h 65 % 0 mm
07:16 -4.6 °C -10.2 °C 1032.1 hPa NNW 1.6 km/h 6.4 km/h 65 % 0 mm
07:17 -4.6 °C -10.2 °C 1032.1 hPa NNW 1.6 km/h 6.4 km/h 65 % 0 mm
07:20 -4.6 °C -10.2 °C 1032.1 hPa NNW 3.2 km/h 6.4 km/h 65 % 0 mm
07:25 -4.6 °C -10.2 °C 1032.1 hPa Calm   6.4 km/h 65 % 0 mm
07:29 -4.6 °C -10.2 °C 1032.1 hPa NNW 1.6 km/h 6.4 km/h 65 % 0 mm
07:34 -4.6 °C -10.2 °C 1032.1 hPa Calm   6.4 km/h 65 % 0 mm
07:38 -4.6 °C -10.2 °C 1032.1 hPa Calm   6.4 km/h 65 % 0 mm
07:44 -4.6 °C -10.2 °C 1032.1 hPa NNW 4.8 km/h 6.4 km/h 65 % 0 mm
07:49 -4.4 °C -10 °C 1032.1 hPa NW 4.8 km/h 6.4 km/h 65 % 0 mm
07:51 -4.4 °C -10 °C 1032.1 hPa NW 4.8 km/h 8 km/h 65 % 0 mm
07:56 -4.2 °C -9.8 °C 1032.1 hPa NW 1.6 km/h 8 km/h 65 % 0 mm
07:57 -4.2 °C -9.8 °C 1032.1 hPa Calm   8 km/h 65 % 0 mm
08:02 -4.1 °C -9.9 °C 1032.1 hPa NW 3.2 km/h 8 km/h 64 % 0 mm
08:07 -3.9 °C -9.7 °C 1032.1 hPa Calm   8 km/h 64 % 0 mm
08:10 -3.8 °C -9.6 °C 1032.1 hPa NNW 1.6 km/h 8 km/h 64 % 0 mm
08:13 -3.8 °C -9.8 °C 1032.1 hPa NW 4.8 km/h 8 km/h 63 % 0 mm
08:17 -3.7 °C -9.7 °C 1032.1 hPa Calm   8 km/h 63 % 0 mm
08:18 -3.6 °C -9.6 °C 1032.1 hPa NNW 3.2 km/h 8 km/h 63 % 0 mm
08:24 -3.4 °C -9.6 °C 1032.1 hPa North 4.8 km/h 8 km/h 62 % 0 mm
08:29 -3.3 °C -9.7 °C 1032.1 hPa WSW 3.2 km/h 8 km/h 61 % 0 mm
08:34 -3.2 °C -9.4 °C 1032.1 hPa Calm   8 km/h 62 % 0 mm
08:36 -3 °C -9.3 °C 1032.1 hPa North 1.6 km/h 8 km/h 62 % 0 mm
08:39 -2.9 °C -9.4 °C 1032.4 hPa North 3.2 km/h 8 km/h 61 % 0 mm
08:44 -2.7 °C -9.4 °C 1032.4 hPa NW 4.8 km/h 8 km/h 60 % 0 mm
08:46 -2.7 °C -9.4 °C 1032.4 hPa NW 6.4 km/h 11.3 km/h 60 % 0 mm
08:52 -2.6 °C -9.5 °C 1032.4 hPa NW 8 km/h 11.3 km/h 59 % 0 mm
08:57 -2.4 °C -9.3 °C 1032.4 hPa NNW 8 km/h 11.3 km/h 59 % 0 mm
08:58 -2.4 °C -9.3 °C 1032.4 hPa NNW 9.7 km/h 11.3 km/h 59 % 0 mm
09:03 -2.3 °C -9.2 °C 1032.4 hPa NNW 3.2 km/h 11.3 km/h 59 % 0 mm
09:05 -2.2 °C -9.1 °C 1032.4 hPa NNW 6.4 km/h 11.3 km/h 59 % 0 mm
09:10 -1.8 °C -8.8 °C 1032.4 hPa NW 4.8 km/h 11.3 km/h 59 % 0 mm
09:15 -1.6 °C -9 °C 1032.7 hPa NW 3.2 km/h 9.7 km/h 57 % 0 mm
09:16 -1.6 °C -9 °C 1032.7 hPa NW 3.2 km/h 9.7 km/h 57 % 0 mm
09:21 -1.4 °C -8.6 °C 1032.4 hPa NNE 1.6 km/h 9.7 km/h 58 % 0 mm
09:23 -1.4 °C -9 °C 1032.4 hPa North 3.2 km/h 9.7 km/h 56 % 0 mm
09:31 -1.1 °C -8.8 °C 1032.7 hPa NNW 4.8 km/h 9.7 km/h 56 % 0 mm
09:36 -0.9 °C -8.8 °C 1032.7 hPa NNW 1.6 km/h 11.3 km/h 55 % 0 mm
09:37 -0.8 °C -8.7 °C 1032.7 hPa NW 8 km/h 11.3 km/h 55 % 0 mm
09:41 -0.6 °C -8.5 °C 1032.7 hPa NNW 4.8 km/h 11.3 km/h 55 % 0 mm
09:44 -0.5 °C -8.7 °C 1032.7 hPa NW 8 km/h 11.3 km/h 54 % 0 mm
09:49 -0.4 °C -8.8 °C 1032.7 hPa NW 6.4 km/h 12.9 km/h 53 % 0 mm
09:54 -0.5 °C -8.9 °C 1032.7 hPa NW 3.2 km/h 12.9 km/h 53 % 0 mm
09:59 -0.4 °C -8.8 °C 1032.7 hPa WNW 9.7 km/h 12.9 km/h 53 % 0 mm
10:02 -0.3 °C -9 °C 1032.7 hPa WNW 9.7 km/h 16.1 km/h 52 % 0 mm
10:07 -0.1 °C -8.8 °C 1032.4 hPa NNW 11.3 km/h 16.1 km/h 52 % 0 mm
10:12 0.2 °C -8.7 °C 1032.4 hPa North 1.6 km/h 16.1 km/h 51 % 0 mm
10:16 0.4 °C -8.8 °C 1032.4 hPa NNE 11.3 km/h 12.9 km/h 50 % 0 mm
10:17 0.4 °C -8.8 °C 1032.4 hPa NNW 3.2 km/h 12.9 km/h 50 % 0 mm
10:22 0.6 °C -8.6 °C 1032.4 hPa NW 3.2 km/h 12.9 km/h 50 % 0 mm
10:24 0.7 °C -8.5 °C 1032.4 hPa NW 4.8 km/h 12.9 km/h 50 % 0 mm
10:29 1 °C -8.5 °C 1032.4 hPa Calm   12.9 km/h 49 % 0 mm
10:30 1 °C -8.8 °C 1032.4 hPa WNW 1.6 km/h 12.9 km/h 48 % 0 mm
10:36 1 °C -8.8 °C 1032.1 hPa NNW 8 km/h 12.9 km/h 48 % 0 mm
10:41 1.1 °C -8.7 °C 1032.1 hPa NNW 8 km/h 12.9 km/h 48 % 0 mm
10:42 1.2 °C -8.6 °C 1032.1 hPa North 16.1 km/h 16.1 km/h 48 % 0 mm
10:49 1.3 °C -8.5 °C 1032.1 hPa NNE 4.8 km/h 20.9 km/h 48 % 0 mm
10:52 1.4 °C -8.4 °C 1032.1 hPa NW 8 km/h 20.9 km/h 48 % 0 mm
10:56 1.6 °C -8.2 °C 1031.7 hPa NNW 6.4 km/h 20.9 km/h 48 % 0 mm
11:01 1.9 °C -8.5 °C 1031.7 hPa NNW 3.2 km/h 14.5 km/h 46 % 0 mm
11:03 1.9 °C -8.5 °C 1031.7 hPa North 3.2 km/h 14.5 km/h 46 % 0 mm
11:08 2 °C -8.7 °C 1031.7 hPa NE 11.3 km/h 14.5 km/h 45 % 0 mm
11:10 1.9 °C -9.1 °C 1031.7 hPa WNW 1.6 km/h 19.3 km/h 44 % 0 mm
11:15 2.1 °C -8.6 °C 1031.7 hPa NNW 9.7 km/h 19.3 km/h 45 % 0 mm
11:17 2.1 °C -8.9 °C 1031.7 hPa North 6.4 km/h 19.3 km/h 44 % 0 mm
11:22 2.2 °C -8.8 °C 1031.4 hPa NNW 9.7 km/h 19.3 km/h 44 % 0 mm
11:27 2.3 °C -8.7 °C 1031.4 hPa NNW 8 km/h 16.1 km/h 44 % 0 mm
11:32 2.6 °C -8.4 °C 1031.4 hPa NW 8 km/h 14.5 km/h 44 % 0 mm
11:37 2.9 °C -8.5 °C 1031 hPa NW 6.4 km/h 14.5 km/h 43 % 0 mm
11:39 2.9 °C -8.8 °C 1031 hPa NW 3.2 km/h 14.5 km/h 42 % 0 mm
11:46 3 °C -8.7 °C 1031 hPa North 11.3 km/h 14.5 km/h 42 % 0 mm
11:49 3.1 °C -8.9 °C 1030.7 hPa North 1.6 km/h 14.5 km/h 41 % 0 mm
11:51 2.9 °C -9.4 °C 1030.7 hPa West 6.4 km/h 14.5 km/h 40 % 0 mm
11:56 3.1 °C -8.9 °C 1030.7 hPa North 6.4 km/h 14.5 km/h 41 % 0 mm
11:57 3.1 °C -8.9 °C 1030.7 hPa North 8 km/h 14.5 km/h 41 % 0 mm
12:02 3.3 °C -9 °C 1030.4 hPa NW 9.7 km/h 16.1 km/h 40 % 0 mm
12:03 3.3 °C -8.7 °C 1030.4 hPa NW 6.4 km/h 16.1 km/h 41 % 0 mm
12:09 3.4 °C -8.9 °C 1030.4 hPa NW 3.2 km/h 16.1 km/h 40 % 0 mm
12:14 3.5 °C -8.5 °C 1030.4 hPa Calm   16.1 km/h 41 % 0 mm
12:19 3.9 °C -8.5 °C 1030.4 hPa Calm   14.5 km/h 40 % 0 mm
12:20 4 °C -8.1 °C 1030 hPa North 6.4 km/h 14.5 km/h 41 % 0 mm
12:22 4.2 °C -8.2 °C 1030 hPa NNE 4.8 km/h 14.5 km/h 40 % 0 mm
12:27 4.4 °C -8 °C 1030 hPa NNW 4.8 km/h 12.9 km/h 40 % 0 mm
12:28 4.4 °C -8 °C 1030 hPa NNW 12.9 km/h 12.9 km/h 40 % 0 mm
12:33 4.5 °C -7.9 °C 1029.7 hPa WSW 3.2 km/h 14.5 km/h 40 % 0 mm
12:36 4.7 °C -8.1 °C 1029.7 hPa WNW 3.2 km/h 14.5 km/h 39 % 0 mm
12:41 4.5 °C -8.6 °C 1029.7 hPa SW 1.6 km/h 14.5 km/h 38 % 0 mm
12:44 4.6 °C -7.8 °C 1029.7 hPa West 3.2 km/h 14.5 km/h 40 % 0 mm
12:53 5.2 °C -7.6 °C 1029.3 hPa NNW 6.4 km/h 11.3 km/h 39 % 0 mm
12:58 5.4 °C -8.1 °C 1029.3 hPa North 6.4 km/h 12.9 km/h 37 % 0 mm
12:59 5.4 °C -7.8 °C 1029.3 hPa NNW 8 km/h 12.9 km/h 38 % 0 mm
13:01 5.3 °C -7.9 °C 1029.3 hPa NNW 9.7 km/h 12.9 km/h 38 % 0 mm
13:06 5.3 °C -7.9 °C 1029 hPa North 4.8 km/h 12.9 km/h 38 % 0 mm
13:07 5.3 °C -7.9 °C 1029 hPa NNE 4.8 km/h 12.9 km/h 38 % 0 mm
13:13 5.5 °C -8 °C 1028.7 hPa North 3.2 km/h 12.9 km/h 37 % 0 mm
13:18 5.6 °C -8 °C 1028.7 hPa Calm   11.3 km/h 37 % 0 mm
13:19 5.6 °C -8 °C 1028.7 hPa NE 1.6 km/h 11.3 km/h 37 % 0 mm
13:20 5.6 °C -7.6 °C 1028.7 hPa North 1.6 km/h 11.3 km/h 38 % 0 mm
13:25 5.7 °C -8.2 °C 1028.7 hPa NW 1.6 km/h 16.1 km/h 36 % 0 mm
13:29 5.7 °C -7.9 °C 1028.3 hPa NNW 4.8 km/h 16.1 km/h 37 % 0 mm
13:30 5.7 °C -7.5 °C 1028.3 hPa NNE 4.8 km/h 16.1 km/h 38 % 0 mm
13:36 5.9 °C -7.7 °C 1028.3 hPa WSW 1.6 km/h 16.1 km/h 37 % 0 mm
13:38 5.9 °C -7.7 °C 1028.3 hPa Calm   16.1 km/h 37 % 0 mm
13:41 6.2 °C -7.8 °C 1028.3 hPa East 1.6 km/h 11.3 km/h 36 % 0 mm
13:44 6.3 °C -7.7 °C 1028.3 hPa WNW 1.6 km/h 11.3 km/h 36 % 0 mm
13:47 6.3 °C -7.7 °C 1028 hPa NW 4.8 km/h 11.3 km/h 36 % 0 mm
13:49 6.4 °C -7.2 °C 1028 hPa WNW 3.2 km/h 11.3 km/h 37 % 0 mm
13:55 6.6 °C -6.7 °C 1028 hPa Calm   8 km/h 38 % 0 mm
14:00 6.8 °C -7.2 °C 1028 hPa NW 9.7 km/h 12.9 km/h 36 % 0 mm
14:01 6.8 °C -7.6 °C 1028 hPa WNW 8 km/h 12.9 km/h 35 % 0 mm
14:03 6.8 °C -7.6 °C 1028 hPa NNW 8 km/h 12.9 km/h 35 % 0 mm
14:07 6.6 °C -7.4 °C 1028 hPa NNW 6.4 km/h 12.9 km/h 36 % 0 mm
14:12 6.7 °C -7.7 °C 1027.7 hPa Calm   12.9 km/h 35 % 0 mm
14:17 7 °C -7.4 °C 1027.7 hPa West 1.6 km/h 12.9 km/h 35 % 0 mm
14:20 7.1 °C -7.3 °C 1027.7 hPa North 8 km/h 12.9 km/h 35 % 0 mm
14:25 7.2 °C -7.3 °C 1027.7 hPa NNW 3.2 km/h 16.1 km/h 35 % 0 mm
14:28 7.3 °C -7.2 °C 1027.7 hPa NNE 1.6 km/h 16.1 km/h 35 % 0 mm
14:33 7.3 °C -7.2 °C 1027.7 hPa WNW 3.2 km/h 16.1 km/h 35 % 0 mm
14:35 7.4 °C -7.4 °C 1027.7 hPa NW 1.6 km/h 16.1 km/h 34 % 0 mm
14:38 7.4 °C -7.4 °C 1027.7 hPa WNW 1.6 km/h 16.1 km/h 34 % 0 mm
14:41 7.5 °C -7.4 °C 1027.7 hPa WNW 6.4 km/h 14.5 km/h 34 % 0 mm
14:46 7.4 °C -7.4 °C 1027.3 hPa North 9.7 km/h 14.5 km/h 34 % 0 mm
14:48 7.5 °C -7.4 °C 1027.3 hPa Calm   14.5 km/h 34 % 0 mm
14:53 7.6 °C -7.7 °C 1027.3 hPa NW 1.6 km/h 14.5 km/h 33 % 0 mm
14:54 7.6 °C -7.3 °C 1027.3 hPa NW 4.8 km/h 14.5 km/h 34 % 0 mm
14:55 7.6 °C -7.7 °C 1027.3 hPa NNW 9.7 km/h 14.5 km/h 33 % 0 mm
15:00 7.6 °C -7.3 °C 1027.3 hPa Calm   14.5 km/h 34 % 0 mm
15:01 7.6 °C -7.3 °C 1027.3 hPa NW 3.2 km/h 14.5 km/h 34 % 0 mm
15:06 7.8 °C -7.5 °C 1027 hPa WSW 3.2 km/h 14.5 km/h 33 % 0 mm
15:09 7.8 °C -7.5 °C 1027 hPa WNW 3.2 km/h 14.5 km/h 33 % 0 mm
15:14 7.9 °C -7.4 °C 1027 hPa North 11.3 km/h 11.3 km/h 33 % 0 mm
15:17 7.9 °C -7 °C 1027 hPa North 1.6 km/h 11.3 km/h 34 % 0 mm
15:22 7.9 °C -7.4 °C 1027.3 hPa NW 3.2 km/h 11.3 km/h 33 % 0 mm
15:27 8.3 °C -6.7 °C 1027 hPa NNW 6.4 km/h 11.3 km/h 34 % 0 mm
15:29 8.3 °C -7.4 °C 1027 hPa NNW 4.8 km/h 11.3 km/h 32 % 0 mm
15:34 8.3 °C -7 °C 1027 hPa NNW 4.8 km/h 12.9 km/h 33 % 0 mm
15:36 8.3 °C -7 °C 1027 hPa NNW 4.8 km/h 12.9 km/h 33 % 0 mm
15:37 8.3 °C -7 °C 1027 hPa NW 9.7 km/h 12.9 km/h 33 % 0 mm
15:42 8.3 °C -7 °C 1027 hPa NNW 9.7 km/h 12.9 km/h 33 % 0 mm
15:44 8.2 °C -7.5 °C 1027 hPa North 1.6 km/h 12.9 km/h 32 % 0 mm
15:49 8.3 °C -7 °C 1027 hPa NW 4.8 km/h 12.9 km/h 33 % 0 mm
15:50 8.3 °C -7 °C 1027 hPa NW 4.8 km/h 12.9 km/h 33 % 0 mm
15:55 8.3 °C -7 °C 1027 hPa NW 4.8 km/h 11.3 km/h 33 % 0 mm
15:57 8.3 °C -7 °C 1027 hPa NW 8 km/h 11.3 km/h 33 % 0 mm
16:02 8.2 °C -7.1 °C 1026.6 hPa NW 4.8 km/h 12.9 km/h 33 % 0 mm
16:09 8.3 °C -6.7 °C 1026.6 hPa NW 4.8 km/h 12.9 km/h 34 % 0 mm
16:11 8.3 °C -7 °C 1026.6 hPa NNW 1.6 km/h 12.9 km/h 33 % 0 mm
16:14 8.4 °C -6.6 °C 1026.6 hPa NNE 3.2 km/h 12.9 km/h 34 % 0 mm
16:16 8.5 °C -6.5 °C 1026.6 hPa NNW 1.6 km/h 9.7 km/h 34 % 0 mm
16:21 8.5 °C -6.5 °C 1026.6 hPa NW 8 km/h 11.3 km/h 34 % 0 mm
16:22 8.5 °C -6.9 °C 1026.6 hPa WNW 4.8 km/h 11.3 km/h 33 % 0 mm
16:27 8.5 °C -6.9 °C 1026.6 hPa WNW 4.8 km/h 11.3 km/h 33 % 0 mm
16:30 8.5 °C -6.9 °C 1026.6 hPa NNW 4.8 km/h 11.3 km/h 33 % 0 mm
16:33 8.4 °C -6.6 °C 1026.6 hPa North 3.2 km/h 11.3 km/h 34 % 0 mm
16:36 8.3 °C -6.7 °C 1026.6 hPa NNW 1.6 km/h 8 km/h 34 % 0 mm
16:41 8.3 °C -6.7 °C 1026.6 hPa NW 1.6 km/h 6.4 km/h 34 % 0 mm
16:44 8.3 °C -6.7 °C 1026.6 hPa NW 1.6 km/h 6.4 km/h 34 % 0 mm
16:49 8.1 °C -6.8 °C 1026.6 hPa WNW 3.2 km/h 8 km/h 34 % 0 mm
16:52 8 °C -6.9 °C 1026.6 hPa North 6.4 km/h 8 km/h 34 % 0 mm
17:01 7.8 °C -6.7 °C 1026.6 hPa Calm   9.7 km/h 35 % 0 mm
17:02 7.8 °C -6.7 °C 1026.6 hPa NW 1.6 km/h 9.7 km/h 35 % 0 mm
17:04 7.8 °C -6.4 °C 1026.6 hPa North 3.2 km/h 9.7 km/h 36 % 0 mm
17:08 7.7 °C -6.4 °C 1026.6 hPa Calm   9.7 km/h 36 % 0 mm
17:13 7.6 °C -6.5 °C 1026.6 hPa Calm   8 km/h 36 % 0 mm
17:18 7.4 °C -6.3 °C 1027 hPa Calm   8 km/h 37 % 0 mm
17:23 7.2 °C -6.2 °C 1027 hPa Calm   8 km/h 38 % 0 mm
17:26 7.2 °C -6.2 °C 1027 hPa NNW 1.6 km/h 4.8 km/h 38 % 0 mm
17:29 7.1 °C -6.3 °C 1027 hPa NW 1.6 km/h 4.8 km/h 38 % 0 mm
17:35 6.9 °C -6.4 °C 1027 hPa Calm   4.8 km/h 38 % 0 mm
17:40 6.8 °C -6.5 °C 1027 hPa Calm   4.8 km/h 38 % 0 mm
17:45 6.6 °C -6.4 °C 1027 hPa Calm   3.2 km/h 39 % 0 mm
17:46 6.6 °C -6.4 °C 1027 hPa Calm   3.2 km/h 39 % 0 mm
17:51 6.2 °C -6.4 °C 1027 hPa Calm   3.2 km/h 40 % 0 mm
17:52 6.2 °C -6.4 °C 1027 hPa Calm   3.2 km/h 40 % 0 mm
17:53 6.2 °C -6.4 °C 1027 hPa Calm   3.2 km/h 40 % 0 mm
17:59 5.6 °C -6.6 °C 1027 hPa Calm   1.6 km/h 41 % 0 mm
18:06 4.9 °C -6 °C 1027 hPa Calm     45 % 0 mm
18:12 4.6 °C -5.7 °C 1027 hPa Calm     47 % 0 mm
18:14 4.4 °C -5.9 °C 1027 hPa Calm     47 % 0 mm
18:20 3.8 °C -6.5 °C 1027 hPa Calm     47 % 0 mm
18:22 3.7 °C -6.3 °C 1027 hPa Calm     48 % 0 mm
18:26 3.3 °C -5.9 °C 1027 hPa Calm     51 % 0 mm
18:31 3.1 °C -5.6 °C 1027 hPa Calm     53 % 0 mm
18:38 2.8 °C -5.6 °C 1027 hPa Calm     54 % 0 mm
18:42 2.6 °C -5.8 °C 1027 hPa Calm     54 % 0 mm
18:44 2.4 °C -5.7 °C 1027.3 hPa Calm     55 % 0 mm
18:47 2.2 °C -5.9 °C 1027.3 hPa Calm     55 % 0 mm
18:52 2.1 °C -4.9 °C 1027 hPa Calm     60 % 0 mm
18:58 2.3 °C -4.9 °C 1027.3 hPa Calm     59 % 0 mm
18:59 2.3 °C -4.7 °C 1027.3 hPa Calm     60 % 0 mm
19:04 2.2 °C -4.8 °C 1027.3 hPa Calm     60 % 0 mm
19:05 2.1 °C -4.9 °C 1027.3 hPa Calm     60 % 0 mm
19:10 1.8 °C -4.9 °C 1027.3 hPa Calm     61 % 0 mm
19:14 1.7 °C -4.6 °C 1027.3 hPa Calm     63 % 0 mm
19:16 1.7 °C -4.6 °C 1027.3 hPa Calm     63 % 0 mm
19:22 1.6 °C -4.5 °C 1027.3 hPa Calm     64 % 0 mm
19:27 1.4 °C -4.3 °C 1027.3 hPa Calm     66 % 0 mm
19:31 1.3 °C -4.6 °C 1027.3 hPa Calm     65 % 0 mm
19:32 1.3 °C -4.6 °C 1027.3 hPa Calm     65 % 0 mm
19:37 1.2 °C -4.4 °C 1027.3 hPa Calm     66 % 0 mm
19:39 1.1 °C -4.5 °C 1027.3 hPa Calm     66 % 0 mm
19:44 1.1 °C -4.5 °C 1027.3 hPa Calm     66 % 0 mm
19:45 1 °C -4.8 °C 1027.3 hPa Calm     65 % 0 mm
19:50 0.8 °C -4.8 °C 1027.7 hPa Calm     66 % 0 mm
19:51 0.8 °C -4.8 °C 1027.7 hPa Calm     66 % 0 mm
19:56 0.5 °C -5.1 °C 1027.7 hPa Calm     66 % 0 mm
20:01 0.2 °C -5.2 °C 1027.7 hPa Calm     67 % 0 mm
20:06 0.2 °C -4.6 °C 1027.7 hPa Calm     70 % 0 mm
20:10 0.4 °C -4.2 °C 1027.7 hPa Calm     71 % 0 mm
20:16 0.6 °C -4.1 °C 1027.7 hPa Calm     71 % 0 mm
20:17 0.6 °C -4.1 °C 1027.7 hPa Calm     71 % 0 mm
20:22 0.4 °C -4.2 °C 1027.7 hPa Calm     71 % 0 mm
20:27 0.3 °C -4.2 °C 1027.7 hPa Calm     72 % 0 mm
20:28 0.3 °C -4.2 °C 1027.7 hPa Calm     72 % 0 mm
20:33 0.4 °C -3.9 °C 1027.7 hPa Calm     73 % 0 mm
20:38 0.3 °C -4.2 °C 1027.7 hPa Calm     72 % 0 mm
20:39 0.3 °C -4.2 °C 1027.7 hPa Calm     72 % 0 mm
20:44 0.3 °C -4 °C 1027.7 hPa Calm     73 % 0 mm
20:46 0.3 °C -4 °C 1027.7 hPa Calm     73 % 0 mm
20:50 0.2 °C -4.1 °C 1027.7 hPa Calm     73 % 0 mm
20:55 0.1 °C -4.2 °C 1027.7 hPa Calm     73 % 0 mm
21:00 -0.1 °C -4.2 °C 1027.7 hPa Calm     74 % 0 mm
21:01 -0.1 °C -4.2 °C 1027.7 hPa Calm     74 % 0 mm
21:07 -0.4 °C -4.5 °C 1027.7 hPa Calm     74 % 0 mm
21:12 -0.6 °C -4.3 °C 1027.7 hPa Calm     76 % 0 mm
21:17 -0.8 °C -4.5 °C 1027.7 hPa Calm     76 % 0 mm
21:19 -0.8 °C -4.5 °C 1027.7 hPa Calm     76 % 0 mm
21:24 -0.9 °C -4.3 °C 1027.7 hPa Calm     78 % 0 mm
21:29 -1 °C -4.3 °C 1027.7 hPa Calm     78 % 0 mm
21:31 -1 °C -4.2 °C 1027.7 hPa Calm     79 % 0 mm
21:35 -1.1 °C -4.4 °C 1027.7 hPa Calm     78 % 0 mm
21:40 -1.2 °C -4.4 °C 1027.7 hPa Calm     79 % 0 mm
21:45 -1.2 °C -4.2 °C 1027.7 hPa Calm     80 % 0 mm
21:46 -1.2 °C -4.2 °C 1027.7 hPa Calm     80 % 0 mm
21:48 -1.3 °C -4.5 °C 1027.7 hPa Calm     79 % 0 mm
21:51 -1.2 °C -4.2 °C 1027.7 hPa Calm     80 % 0 mm
21:55 -1.1 °C -3.8 °C 1027.7 hPa Calm     82 % 0 mm
21:56 -0.9 °C -3.6 °C 1027.7 hPa Calm     82 % 0 mm
22:01 -0.8 °C -3.5 °C 1027.7 hPa Calm     82 % 0 mm
22:03 -0.8 °C -3.5 °C 1027.7 hPa Calm     82 % 0 mm
22:12 -0.8 °C -3.7 °C 1028 hPa Calm     81 % 0 mm
22:13 -0.8 °C -3.7 °C 1028 hPa Calm     81 % 0 mm
22:14 -0.9 °C -3.7 °C 1028 hPa Calm     81 % 0 mm
22:15 -0.9 °C -3.7 °C 1028 hPa Calm     81 % 0 mm
22:16 -0.9 °C -3.7 °C 1028 hPa Calm     81 % 0 mm
22:17 -1 °C -3.8 °C 1028 hPa Calm     81 % 0 mm
22:21 -1.1 °C -3.8 °C 1028 hPa Calm     82 % 0 mm
22:22 -1.1 °C -3.8 °C 1028 hPa Calm     82 % 0 mm
22:27 -1.2 °C -3.7 °C 1028 hPa Calm     83 % 0 mm
22:30 -1.3 °C -4 °C 1028 hPa Calm     82 % 0 mm
22:32 -1.4 °C -4.1 °C 1028 hPa Calm     82 % 0 mm
22:37 -1.6 °C -3.9 °C 1028 hPa Calm     84 % 0 mm
22:42 -1.7 °C -4.2 °C 1028 hPa Calm     83 % 0 mm
22:44 -1.8 °C -4.3 °C 1028 hPa Calm     83 % 0 mm
22:45 -1.9 °C -4.4 °C 1028 hPa Calm     83 % 0 mm
22:46 -1.9 °C -4.4 °C 1028 hPa Calm     83 % 0 mm
22:50 -2 °C -4.3 °C 1028 hPa Calm     84 % 0 mm
22:55 -1.8 °C -4 °C 1028 hPa Calm     85 % 0 mm
22:56 -1.8 °C -4 °C 1028 hPa Calm     85 % 0 mm
22:57 -1.8 °C -3.8 °C 1028 hPa Calm     86 % 0 mm
23:02 -1.8 °C -3.8 °C 1028 hPa Calm     86 % 0 mm
23:07 -1.9 °C -4.1 °C 1028 hPa Calm     85 % 0 mm
23:10 -2 °C -4.2 °C 1028 hPa Calm     85 % 0 mm
23:15 -2.1 °C -4.1 °C 1028 hPa Calm     86 % 0 mm
23:16 -2 °C -4 °C 1028 hPa Calm     86 % 0 mm
23:21 -1.9 °C -3.9 °C 1028 hPa Calm     86 % 0 mm
23:25 -1.9 °C -3.8 °C 1028 hPa Calm     87 % 0 mm
23:30 -1.9 °C -3.8 °C 1028 hPa Calm     87 % 0 mm
23:32 -1.9 °C -3.9 °C 1028 hPa Calm     86 % 0 mm
23:34 -1.9 °C -3.9 °C 1028 hPa Calm     86 % 0 mm
23:37 -2 °C -3.9 °C 1028 hPa Calm     87 % 0 mm
23:39 -2.1 °C -4.1 °C 1028 hPa Calm     86 % 0 mm
23:44 -2.1 °C -4.1 °C 1028 hPa Calm     86 % 0 mm
23:49 -2.1 °C -4 °C 1028 hPa Calm     87 % 0 mm
23:54 -2.1 °C -4 °C 1028 hPa Calm     87 % 0 mm
23:55 -2.1 °C -4 °C 1028 hPa Calm     87 % 0 mm
23:59 -2.1 °C -4 °C 1028 hPa Calm     87 % 0 mm
Spring, Texas: Villages of Bridgestone
Compliments of Weather Underground - 3.5 mb

Script developed by  Jim McMurry - jmcmurry@mwt.net Adapted for the template by  Wim van der Kuil - Leuven-Template.eu

You find our weather info also at:

UK Metoffice

WeatherCloud

Weather Underground

Mid-South Weather Network

AWEKAS

Citizen Weather Observer Program (CWOP)

HAMweather, WeatherForYou, PWS Weather

Equipment we use:

Weather-station
Davis Vantage Vue

Weather-program
Meteohub

Weather-server
Debian 7.9 x86 (Guest)

Provider
DreamHost

Davis Vantage Vue

Meteohub

Debian 7.9 x86 (Guest)

DreamHost